Location: Laas
(43.4693°N, 0.3073°E)
Time: 16:06:07
(UTC+00:00)

IRS-P2 Rocket - Pass Details

Date: 25 October 2020
Orbit: 794 x 876 km, 99.1° (Epoch: 24 November)

Event Time Altitude Azimuth Distance (km) Brightness Sun altitude
Rises 18:18:05 0° 160° (SSE) 3,281 7.6 -14.9°
Reaches altitude 10° 18:20:23 10° 159° (SSE) 2,357 6.8 -15.3°
Maximum altitude 18:25:34 80° 73° (ENE) 817 4.5 -16.3°
Drops below altitude 10° 18:30:52 10° 348° (NNW) 2,401 7.2 -17.2°
Sets 18:33:14 0° 347° (NNW) 3,346 8.0 -17.6°
